Location: Fort Worth, Tx
(32.7431°N, 97.3695°W)
Time: 18:36:04
(UTC-04:00)

Transit 4A - Pass Details

Date: 08 March 2024
Orbit: 871 x 972 km, 66.8° (Epoch: 21 April)

Event Time Altitude Azimuth Distance (km) Brightness Sun altitude
Rises 22:48:32 0° 189° (S) 3,614 - -41.0°
Reaches altitude 10° 22:51:10 10° 184° (S) 2,659 - -41.5°
Maximum altitude 22:57:06 49° 111° (ESE) 1,182 - -42.6°
Drops below altitude 10° 23:02:54 10° 38° (NE) 2,606 - -43.6°
Sets 23:05:27 0° 33° (NNE) 3,536 - -44.1°
